����,���ϕ���(m/s),���ϕ���,�ő�u�ԕ���(m/s),�ő啗��������,�C��(��),���x(%),10���Ԉړ��ώZ�J��(mm),1���Ԉړ��ώZ�J��(mm),���J��(mm),�݌v�J��(mm),����(���ώZ)(MJ/m2),����(���ώZ)(min),���n�C��(hPa),�C�ʋC��(hPa)
2022-10-03T00:00:00+09:00,0.3,�k,1.5,��,19.1,82.2,0,0,0,0,19.85,578,1008,1021.7
2022-10-03T00:01:00+09:00,0.4,�k�k��,1.6,��,19.2,82.9,0,0,0,0,0,0,1008,1021.7
2022-10-03T00:02:00+09:00,0.5,�k��,1.6,��,19.1,82.6,0,0,0,0,0,0,1008.1,1021.8
2022-10-03T00:03:00+09:00,0.6,���k��,1.6,��,19.1,82.6,0,0,0,0,0,0,1008.1,1021.8
2022-10-03T00:04:00+09:00,0.6,���k��,1.6,��,19.1,83,0,0,0,0,0,0,1008.1,1021.8
2022-10-03T00:05:00+09:00,0.6,���k��,1.6,��,18.8,81.7,0,0,0,0,0,0,1008.1,1021.8
2022-10-03T00:06:00+09:00,0.7,��,1.6,��,18.8,82.8,0,0,0,0,0,0,1008.1,1021.8
2022-10-03T00:07:00+09:00,0.7,���쐼,1.6,��,19,83.8,0,0,0,0,0,0,1008.1,1021.8
2022-10-03T00:08:00+09:00,0.7,���쐼,1.6,��,19.3,84.5,0,0,0,0,0,0,1008.1,1021.8
2022-10-03T00:09:00+09:00,0.6,���쐼,1.6,��,19.3,83.6,0,0,0,0,0,0,1008.1,1021.8
2022-10-03T00:10:00+09:00,0.5,���쐼,1.6,��,19.2,82.8,0,0,0,0,0,0,1008.1,1021.8
2022-10-03T00:11:00+09:00,0.4,��,1.5,��,19,82.3,0,0,0,0,0,0,1008,1021.7
2022-10-03T00:12:00+09:00,0.3,��,1.1,��,19.2,82.9,0,0,0,0,0,0,1008,1021.7
2022-10-03T00:13:00+09:00,0.2,�É�,1,��,19.1,82.8,0,0,0,0,0,0,1008.1,1021.8
2022-10-03T00:14:00+09:00,0.2,�É�,0.9,���쐼,19.1,82.8,0,0,0,0,0,0,1008,1021.7
2022-10-03T00:15:00+09:00,0.2,�É�,0.7,�쐼,19.4,83.4,0,0,0,0,0,0,1008.1,1021.8
2022-10-03T00:16:00+09:00,0.2,�É�,0.7,�쐼,19.4,83.5,0,0,0,0,0,0,1008.1,1021.8
2022-10-03T00:17:00+09:00,0.2,�É�,0.9,��,19.2,82.9,0,0,0,0,0,0,1008.1,1021.8
2022-10-03T00:18:00+09:00,0.2,�É�,0.9,��,19.3,83.4,0,0,0,0,0,0,1008.1,1021.8
2022-10-03T00:19:00+09:00,0.2,�É�,0.9,��,19.4,83.7,0,0,0,0,0,0,1008.1,1021.8
2022-10-03T00:20:00+09:00,0.2,�É�,0.9,��,19.3,83.3,0,0,0,0,0,0,1008.1,1021.8
2022-10-03T00:21:00+09:00,0.2,�É�,0.9,��,19.2,82.9,0,0,0,0,0,0,1008.1,1021.8
2022-10-03T00:22:00+09:00,0.2,�É�,0.9,��,19.2,82.9,0,0,0,0,0,0,1008.1,1021.8
2022-10-03T00:23:00+09:00,0.2,�É�,0.9,��,19.3,83.3,0,0,0,0,0,0,1008.1,1021.8
2022-10-03T00:24:00+09:00,0.2,�É�,0.9,��,19.4,83.6,0,0,0,0,0,0,1008.1,1021.8
2022-10-03T00:25:00+09:00,0.2,�É�,0.9,��,19.4,83.5,0,0,0,0,0,0,1008.1,1021.8
2022-10-03T00:26:00+09:00,0.2,�É�,0.9,��,19.3,82.8,0,0,0,0,0,0,1008.1,1021.8
2022-10-03T00:27:00+09:00,0.2,�É�,0.7,���k��,19.3,82.6,0,0,0,0,0,0,1008.1,1021.8
2022-10-03T00:28:00+09:00,0.2,�É�,0.7,���k��,19.4,83,0,0,0,0,0,0,1008.1,1021.8
2022-10-03T00:29:00+09:00,0.2,�É�,0.7,���k��,19.4,83.5,0,0,0,0,0,0,1008.1,1021.8
2022-10-03T00:30:00+09:00,0.2,�É�,0.7,���k��,19.1,82.7,0,0,0,0,0,0,1008.1,1021.8
2022-10-03T00:31:00+09:00,0.2,�É�,0.7,���k��,19.3,83.5,0,0,0,0,0,0,1008.1,1021.8
2022-10-03T00:32:00+09:00,0.2,�É�,0.7,���k��,19.3,84.5,0,0,0,0,0,0,1008.1,1021.8
2022-10-03T00:33:00+09:00,0.2,�É�,0.7,���k��,19.3,83.7,0,0,0,0,0,0,1008.1,1021.8
2022-10-03T00:34:00+09:00,0.2,�É�,0.7,���k��,19.3,83.7,0,0,0,0,0,0,1008.1,1021.8
2022-10-03T00:35:00+09:00,0.3,��쐼,0.9,��,19.1,83.1,0,0,0,0,0,0,1008.1,1021.8
2022-10-03T00:36:00+09:00,0.3,��쐼,0.9,��,19.2,83.3,0,0,0,0,0,0,1008.1,1021.8
2022-10-03T00:37:00+09:00,0.3,��쐼,0.9,��,19.2,83.6,0,0,0,0,0,0,1008.1,1021.8
2022-10-03T00:38:00+09:00,0.3,��쐼,0.9,��,19.3,84,0,0,0,0,0,0,1008.1,1021.8
2022-10-03T00:39:00+09:00,0.3,��쐼,0.9,��,19.3,83.5,0,0,0,0,0,0,1008.1,1021.8
2022-10-03T00:40:00+09:00,0.4,��쐼,1,��,19.3,82.9,0,0,0,0,0,0,1008.1,1021.8
2022-10-03T00:41:00+09:00,0.4,�쐼,1,��,19.3,83,0,0,0,0,0,0,1008.1,1021.8
2022-10-03T00:42:00+09:00,0.4,��쐼,1,��,19,82.7,0,0,0,0,0,0,1008.1,1021.8
2022-10-03T00:43:00+09:00,0.4,��쐼,1,��,19.2,83.2,0,0,0,0,0,0,1008.1,1021.8
2022-10-03T00:44:00+09:00,0.4,��쐼,1.1,��,19.1,83.2,0,0,0,0,0,0,1008.1,1021.8
2022-10-03T00:45:00+09:00,0.4,��쐼,1.1,��,19.3,83.5,0,0,0,0,0,0,1008.1,1021.8
2022-10-03T00:46:00+09:00,0.4,��쐼,1.1,��,19.3,83.4,0,0,0,0,0,0,1008.1,1021.8
2022-10-03T00:47:00+09:00,0.4,��쐼,1.1,��,19.1,82.9,0,0,0,0,0,0,1008.1,1021.8
2022-10-03T00:48:00+09:00,0.4,��쐼,1.1,��,19.1,82.8,0,0,0,0,0,0,1008.1,1021.8
2022-10-03T00:49:00+09:00,0.4,��쐼,1.1,��,19,83.1,0,0,0,0,0,0,1008.1,1021.8
2022-10-03T00:50:00+09:00,0.4,��쐼,1.1,��,19,83.3,0,0,0,0,0,0,1008.1,1021.8
2022-10-03T00:51:00+09:00,0.4,��,1.1,��,19.1,83.7,0,0,0,0,0,0,1008,1021.7
2022-10-03T00:52:00+09:00,0.4,��쐼,1.1,��,19.4,84.3,0,0,0,0,0,0,1008.1,1021.8
2022-10-03T00:53:00+09:00,0.4,��쐼,1.1,��,19.4,83.8,0,0,0,0,0,0,1008.1,1021.8
2022-10-03T00:54:00+09:00,0.4,��쐼,1,��,19.5,83.6,0,0,0,0,0,0,1008.1,1021.8
2022-10-03T00:55:00+09:00,0.4,��쐼,1,��,19.5,83,0,0,0,0,0,0,1008.1,1021.8
2022-10-03T00:56:00+09:00,0.4,��쐼,0.9,��,19.3,82.9,0,0,0,0,0,0,1008.1,1021.8
2022-10-03T00:57:00+09:00,0.4,��쐼,0.9,��,19.3,82.6,0,0,0,0,0,0,1008.1,1021.8
2022-10-03T00:58:00+09:00,0.4,��쐼,1,��쐼,19.3,83,0,0,0,0,0,0,1008.1,1021.8
2022-10-03T00:59:00+09:00,0.5,��쐼,1.2,��,19.3,83.1,0,0,0,0,0,0,1008.1,1021.8
2022-10-03T01:00:00+09:00,0.5,��쐼,1.2,��,19.2,82.8,0,0,0,0,0,0,1008.1,1021.8
2022-10-03T01:01:00+09:00,0.5,��쐼,1.2,��,19.1,83,0,0,0,0,0,0,1008.1,1021.8
2022-10-03T01:02:00+09:00,0.6,��쐼,1.2,��,19.4,83.8,0,0,0,0,0,0,1008.1,1021.8
2022-10-03T01:03:00+09:00,0.6,��쐼,1.2,��,19.5,84.3,0,0,0,0,0,0,1008.1,1021.8
2022-10-03T01:04:00+09:00,0.6,��쐼,1.2,��,19.5,83.6,0,0,0,0,0,0,1008,1021.7
2022-10-03T01:05:00+09:00,0.6,��쐼,1.2,��,19.6,83.6,0,0,0,0,0,0,1008,1021.7
2022-10-03T01:06:00+09:00,0.6,��쐼,1.2,��,19.4,82.7,0,0,0,0,0,0,1008,1021.7
2022-10-03T01:07:00+09:00,0.6,��쐼,1.2,��,19.2,82.6,0,0,0,0,0,0,1008,1021.7
2022-10-03T01:08:00+09:00,0.6,��쐼,1.4,��쐼,19.2,83,0,0,0,0,0,0,1008,1021.7
2022-10-03T01:09:00+09:00,0.6,��쐼,1.4,��쐼,19.1,83.4,0,0,0,0,0,0,1008.1,1021.8
2022-10-03T01:10:00+09:00,0.6,��쐼,1.4,��쐼,19.4,84.5,0,0,0,0,0,0,1008.1,1021.8
2022-10-03T01:11:00+09:00,0.7,��쐼,1.4,��쐼,19.6,84.7,0,0,0,0,0,0,1008.1,1021.8
2022-10-03T01:12:00+09:00,0.7,��쐼,1.4,��쐼,19.5,84.3,0,0,0,0,0,0,1008.1,1021.8
2022-10-03T01:13:00+09:00,0.7,��쐼,1.4,��쐼,19.3,83.2,0,0,0,0,0,0,1008.1,1021.8
2022-10-03T01:14:00+09:00,0.7,��쐼,1.4,��쐼,19.3,83.3,0,0,0,0,0,0,1008.1,1021.8
2022-10-03T01:15:00+09:00,0.8,��쐼,1.4,��쐼,19.3,83.7,0,0,0,0,0,0,1008.1,1021.8
2022-10-03T01:16:00+09:00,0.8,��쐼,1.4,��쐼,19.2,83.9,0,0,0,0,0,0,1008.1,1021.8
2022-10-03T01:17:00+09:00,0.8,��쐼,1.7,��,19.1,84,0,0,0,0,0,0,1008.1,1021.8
2022-10-03T01:18:00+09:00,0.9,��쐼,1.7,��,19.1,84.3,0,0,0,0,0,0,1008.1,1021.8
2022-10-03T01:19:00+09:00,0.9,��쐼,1.7,��,19.1,84.7,0,0,0,0,0,0,1008.1,1021.8
2022-10-03T01:20:00+09:00,1,��쐼,1.8,��,19.1,85,0,0,0,0,0,0,1008.1,1021.8
2022-10-03T01:21:00+09:00,1,��쐼,1.8,��,19.1,84.9,0,0,0,0,0,0,1008,1021.7
2022-10-03T01:22:00+09:00,1,��쐼,1.8,��,19.2,85.2,0,0,0,0,0,0,1008.1,1021.8
2022-10-03T01:23:00+09:00,1,��쐼,1.8,��,19.3,85.2,0,0,0,0,0,0,1008.1,1021.8
2022-10-03T01:24:00+09:00,0.9,��쐼,1.8,��,19.6,85.6,0,0,0,0,0,0,1008.1,1021.8
2022-10-03T01:25:00+09:00,0.9,��쐼,1.8,��,19.4,84.9,0,0,0,0,0,0,1008.1,1021.8
2022-10-03T01:26:00+09:00,0.9,��쐼,1.8,��,19.2,83.9,0,0,0,0,0,0,1008.1,1021.8
2022-10-03T01:27:00+09:00,0.9,��쐼,1.8,��,19.3,84.3,0,0,0,0,0,0,1008.1,1021.8
2022-10-03T01:28:00+09:00,0.8,��쐼,1.8,��,19.4,84.9,0,0,0,0,0,0,1008.1,1021.8
2022-10-03T01:29:00+09:00,0.8,��쐼,1.8,��,19.5,84.9,0,0,0,0,0,0,1008.1,1021.8
2022-10-03T01:30:00+09:00,0.7,��쐼,1.5,��쐼,19.5,84.8,0,0,0,0,0,0,1008.1,1021.8
2022-10-03T01:31:00+09:00,0.7,��쐼,1.5,��쐼,19.4,84.4,0,0,0,0,0,0,1008.1,1021.8
2022-10-03T01:32:00+09:00,0.8,��쐼,1.5,��쐼,19.6,84.7,0,0,0,0,0,0,1008.1,1021.8
2022-10-03T01:33:00+09:00,0.8,��쐼,1.5,��쐼,19.5,84.7,0,0,0,0,0,0,1008.1,1021.8
2022-10-03T01:34:00+09:00,0.8,��쐼,1.5,��쐼,19.4,84.1,0,0,0,0,0,0,1008.1,1021.8
2022-10-03T01:35:00+09:00,0.9,��쐼,1.5,��쐼,19.5,84.4,0,0,0,0,0,0,1008.1,1021.8
2022-10-03T01:36:00+09:00,0.8,��쐼,1.5,��쐼,19.5,84.5,0,0,0,0,0,0,1008.1,1021.8
2022-10-03T01:37:00+09:00,0.8,��쐼,1.5,��쐼,19.5,84.6,0,0,0,0,0,0,1008.1,1021.8
2022-10-03T01:38:00+09:00,0.8,��쐼,1.5,��쐼,19.5,84.5,0,0,0,0,0,0,1008.1,1021.8
2022-10-03T01:39:00+09:00,0.9,��쐼,1.5,��쐼,19.5,84.6,0,0,0,0,0,0,1008.1,1021.8
2022-10-03T01:40:00+09:00,0.9,��쐼,1.5,��쐼,19.5,84.8,0,0,0,0,0,0,1008.1,1021.8
2022-10-03T01:41:00+09:00,0.9,��쐼,1.5,��쐼,19.5,84.8,0,0,0,0,0,0,1008.1,1021.8
2022-10-03T01:42:00+09:00,0.8,��쐼,1.5,��쐼,19.8,85.7,0,0,0,0,0,0,1008.1,1021.8
2022-10-03T01:43:00+09:00,0.8,��쐼,1.4,��,19.8,85,0,0,0,0,0,0,1008.1,1021.8
2022-10-03T01:44:00+09:00,0.8,��쐼,1.5,��쓌,19.8,84.6,0,0,0,0,0,0,1008.1,1021.8
2022-10-03T01:45:00+09:00,0.8,��쐼,1.5,��쓌,19.8,84.8,0,0,0,0,0,0,1008.1,1021.8
2022-10-03T01:46:00+09:00,0.8,��쐼,1.5,��쓌,19.7,84.8,0,0,0,0,0,0,1008,1021.7
2022-10-03T01:47:00+09:00,0.8,��쐼,1.5,��쓌,19.8,84.8,0,0,0,0,0,0,1008.1,1021.8
2022-10-03T01:48:00+09:00,0.8,��쐼,1.7,��쐼,19.8,85.2,0,0,0,0,0,0,1008,1021.7
2022-10-03T01:49:00+09:00,0.9,��쐼,2,��쐼,19.9,85.6,0,0,0,0,0,0,1008,1021.7
2022-10-03T01:50:00+09:00,0.9,��쐼,2,��쐼,20.1,86.3,0,0,0,0,0,0,1008,1021.7
2022-10-03T01:51:00+09:00,0.9,��쐼,2,��쐼,20.2,86.4,0,0,0,0,0,0,1008,1021.7
2022-10-03T01:52:00+09:00,0.9,��쐼,2,��쐼,20.2,85.8,0,0,0,0,0,0,1008,1021.7
2022-10-03T01:53:00+09:00,0.9,��쐼,2,��쐼,20.2,85.7,0,0,0,0,0,0,1008,1021.7
2022-10-03T01:54:00+09:00,0.9,��쐼,2,��쐼,20.3,86,0,0,0,0,0,0,1008,1021.7
2022-10-03T01:55:00+09:00,1,��,2,��쐼,20.3,86,0,0,0,0,0,0,1008,1021.7
2022-10-03T01:56:00+09:00,1,��,2,��쐼,20.4,86,0,0,0,0,0,0,1008.1,1021.8
2022-10-03T01:57:00+09:00,1,��,2,��쐼,20.4,85.6,0,0,0,0,0,0,1008,1021.7
2022-10-03T01:58:00+09:00,1,��,2.3,��,20.4,85.3,0,0,0,0,0,0,1008,1021.7
2022-10-03T01:59:00+09:00,1,��,2.3,��,20.5,85.5,0,0,0,0,0,0,1008,1021.7
2022-10-03T02:00:00+09:00,1,��,2.3,��,20.4,85.3,0,0,0,0,0,0,1008,1021.7
2022-10-03T02:01:00+09:00,1,��,2.3,��,20.4,85,0,0,0,0,0,0,1008,1021.7
2022-10-03T02:02:00+09:00,1.1,��,2.4,��,20.4,85.2,0,0,0,0,0,0,1008,1021.7
2022-10-03T02:03:00+09:00,1,��,2.4,��,20.4,85.5,0,0,0,0,0,0,1008,1021.7
2022-10-03T02:04:00+09:00,1,��,2.4,��,20.4,85.8,0,0,0,0,0,0,1008,1021.7
2022-10-03T02:05:00+09:00,1,��쐼,2.4,��,20.4,85.6,0,0,0,0,0,0,1007.9,1021.6
2022-10-03T02:06:00+09:00,1,��,2.4,��,20.3,85.1,0,0,0,0,0,0,1007.9,1021.6
2022-10-03T02:07:00+09:00,1,��,2.4,��,20.2,84.8,0,0,0,0,0,0,1007.9,1021.6
2022-10-03T02:08:00+09:00,0.9,��,2.4,��,20.1,85,0,0,0,0,0,0,1007.9,1021.6
2022-10-03T02:09:00+09:00,0.9,��,2.4,��,20.1,85.1,0,0,0,0,0,0,1007.9,1021.6
2022-10-03T02:10:00+09:00,0.9,��,2.4,��,20.2,85.6,0,0,0,0,0,0,1008,1021.7
2022-10-03T02:11:00+09:00,0.9,��,2.4,��,20.1,85.6,0,0,0,0,0,0,1008,1021.7
2022-10-03T02:12:00+09:00,0.8,��,2.2,��,20.1,85.5,0,0,0,0,0,0,1008,1021.7
2022-10-03T02:13:00+09:00,0.8,��,2.2,��,20,85.7,0,0,0,0,0,0,1008,1021.7
2022-10-03T02:14:00+09:00,0.8,��,2.2,��,20,85.7,0,0,0,0,0,0,1008,1021.7
2022-10-03T02:15:00+09:00,0.7,��,2.2,��,19.9,85.6,0,0,0,0,0,0,1008,1021.7
2022-10-03T02:16:00+09:00,0.7,��,1.7,��,19.9,85.9,0,0,0,0,0,0,1008,1021.7
2022-10-03T02:17:00+09:00,0.7,��,1.7,��,19.9,86.2,0,0,0,0,0,0,1008,1021.7
2022-10-03T02:18:00+09:00,0.6,��,1.7,��,19.9,86.4,0,0,0,0,0,0,1008,1021.7
2022-10-03T02:19:00+09:00,0.6,��,1.7,��,19.9,86.7,0,0,0,0,0,0,1008,1021.7
2022-10-03T02:20:00+09:00,0.6,��,1.6,��쓌,19.9,86.8,0,0,0,0,0,0,1008,1021.7
2022-10-03T02:21:00+09:00,0.6,��,1.6,��쓌,19.9,87,0,0,0,0,0,0,1008,1021.7
2022-10-03T02:22:00+09:00,0.5,��,1.6,��쓌,19.9,86.9,0,0,0,0,0,0,1008,1021.7
2022-10-03T02:23:00+09:00,0.5,��,1.6,��쓌,19.9,87.1,0,0,0,0,0,0,1008,1021.7
2022-10-03T02:24:00+09:00,0.5,��,1.7,��,19.9,87.3,0,0,0,0,0,0,1007.9,1021.6
2022-10-03T02:25:00+09:00,0.5,��,1.7,��,20,87.4,0,0,0,0,0,0,1008,1021.7
2022-10-03T02:26:00+09:00,0.6,��,2.2,��,19.9,87.4,0,0,0,0,0,0,1008,1021.7
2022-10-03T02:27:00+09:00,0.7,��,2.2,��,20,87.6,0,0,0,0,0,0,1007.9,1021.6
2022-10-03T02:28:00+09:00,0.7,��,2.2,��,19.9,87.7,0,0,0,0,0,0,1007.9,1021.6
2022-10-03T02:29:00+09:00,0.7,��,2.2,��,20,87.9,0,0,0,0,0,0,1008,1021.7
2022-10-03T02:30:00+09:00,0.8,��,2.2,��,20,87.9,0,0,0,0,0,0,1007.9,1021.6
2022-10-03T02:31:00+09:00,0.8,��,2.2,��,19.9,87.6,0,0,0,0,0,0,1008,1021.7
2022-10-03T02:32:00+09:00,0.8,��,2.2,��,20,87.7,0,0,0,0,0,0,1008,1021.7
2022-10-03T02:33:00+09:00,0.9,��,2.2,��,20,87.8,0,0,0,0,0,0,1008,1021.7
2022-10-03T02:34:00+09:00,0.9,��,2.2,��,20,88,0,0,0,0,0,0,1008,1021.7
2022-10-03T02:35:00+09:00,0.9,��,2.2,��,20,88,0,0,0,0,0,0,1007.9,1021.6
2022-10-03T02:36:00+09:00,0.9,��,1.9,��,20.1,88.1,0,0,0,0,0,0,1007.9,1021.6
2022-10-03T02:37:00+09:00,0.9,��,1.8,��쓌,20.1,88.1,0,0,0,0,0,0,1007.9,1021.6
2022-10-03T02:38:00+09:00,0.9,��,1.8,��쓌,20.1,88.2,0,0,0,0,0,0,1007.9,1021.6
2022-10-03T02:39:00+09:00,0.8,��,1.8,��쓌,20.2,88.3,0,0,0,0,0,0,1007.9,1021.6
2022-10-03T02:40:00+09:00,0.8,��,2,��쓌,20.2,88.3,0,0,0,0,0,0,1008,1021.7
2022-10-03T02:41:00+09:00,0.8,��,2,��쓌,20.1,87.8,0,0,0,0,0,0,1007.9,1021.6
2022-10-03T02:42:00+09:00,0.8,��,2,��쓌,20.1,87.9,0,0,0,0,0,0,1007.9,1021.6
2022-10-03T02:43:00+09:00,0.7,��,2,��쓌,20.1,87.8,0,0,0,0,0,0,1007.9,1021.6
2022-10-03T02:44:00+09:00,0.7,��,2,��쓌,20.1,87.6,0,0,0,0,0,0,1007.9,1021.6
2022-10-03T02:45:00+09:00,0.6,��,2,��쓌,20.2,87.8,0,0,0,0,0,0,1007.9,1021.6
2022-10-03T02:46:00+09:00,0.5,��,2,��쓌,20.2,87.7,0,0,0,0,0,0,1007.9,1021.6
2022-10-03T02:47:00+09:00,0.5,��,2,��쓌,20.1,87.4,0,0,0,0,0,0,1007.9,1021.6
2022-10-03T02:48:00+09:00,0.5,��,2,��쓌,20,87.3,0,0,0,0,0,0,1007.9,1021.6
2022-10-03T02:49:00+09:00,0.6,��,2.1,��,19.9,87.3,0,0,0,0,0,0,1007.9,1021.6
2022-10-03T02:50:00+09:00,0.5,��,2.1,��,19.9,87.7,0,0,0,0,0,0,1007.9,1021.6
2022-10-03T02:51:00+09:00,0.5,��,2.1,��,20,88.3,0,0,0,0,0,0,1007.9,1021.6
2022-10-03T02:52:00+09:00,0.6,��,2.1,��,20.1,88.8,0,0,0,0,0,0,1007.9,1021.6
2022-10-03T02:53:00+09:00,0.6,��쓌,2.1,��,20.2,89,0,0,0,0,0,0,1007.9,1021.6
2022-10-03T02:54:00+09:00,0.6,��,2.1,��,20.2,88.8,0,0,0,0,0,0,1007.9,1021.6
2022-10-03T02:55:00+09:00,0.6,��,2.1,��,20.2,88.6,0,0,0,0,0,0,1008,1021.7
2022-10-03T02:56:00+09:00,0.7,��,2.1,��,20.4,89.4,0,0,0,0,0,0,1008,1021.7
2022-10-03T02:57:00+09:00,0.7,��,2.1,��,20.4,88.6,0,0,0,0,0,0,1008,1021.7
2022-10-03T02:58:00+09:00,0.7,��,2.1,��,20.4,88.2,0,0,0,0,0,0,1008,1021.7
2022-10-03T02:59:00+09:00,0.7,��,1.8,��,20.3,88.1,0,0,0,0,0,0,1008,1021.7
2022-10-03T03:00:00+09:00,0.7,��,1.8,��,20.2,87.8,0,0,0,0,0,0,1008,1021.7
2022-10-03T03:01:00+09:00,0.7,��,1.8,��,20.3,88,0,0,0,0,0,0,1008,1021.7
2022-10-03T03:02:00+09:00,0.7,��,1.8,��,20.3,88.3,0,0,0,0,0,0,1008,1021.7
2022-10-03T03:03:00+09:00,0.7,��,1.8,��,20.3,88.2,0,0,0,0,0,0,1008,1021.7
2022-10-03T03:04:00+09:00,0.7,��,1.8,��,20.3,88.1,0,0,0,0,0,0,1008,1021.7
2022-10-03T03:05:00+09:00,0.7,��,1.8,��,20.4,88.5,0,0,0,0,0,0,1008,1021.7
2022-10-03T03:06:00+09:00,0.6,��,1.8,��,20.3,88.2,0,0,0,0,0,0,1008,1021.7
2022-10-03T03:07:00+09:00,0.7,��,1.8,��,20.2,87.8,0,0,0,0,0,0,1008,1021.7
2022-10-03T03:08:00+09:00,0.7,��,1.7,��쓌,20.2,87.8,0,0,0,0,0,0,1008,1021.7
2022-10-03T03:09:00+09:00,0.6,��,1.7,��쓌,20.2,88.2,0,0,0,0,0,0,1008,1021.7
2022-10-03T03:10:00+09:00,0.6,��,1.7,���쓌,20.2,88.7,0,0,0,0,0,0,1008,1021.7
2022-10-03T03:11:00+09:00,0.6,��,1.7,���쓌,20.3,88.8,0,0,0,0,0,0,1008,1021.7
2022-10-03T03:12:00+09:00,0.6,��,2.1,��쓌,20.4,88.8,0,0,0,0,0,0,1008,1021.7
2022-10-03T03:13:00+09:00,0.7,��,2.1,��쓌,20.3,88.4,0,0,0,0,0,0,1008,1021.7
2022-10-03T03:14:00+09:00,0.7,��,2.1,��쓌,20.3,88.2,0,0,0,0,0,0,1008,1021.7
2022-10-03T03:15:00+09:00,0.7,��,2.1,��쓌,20.3,88.3,0,0,0,0,0,0,1008,1021.7
2022-10-03T03:16:00+09:00,0.8,��쓌,2.1,��쓌,20.4,88.6,0,0,0,0,0,0,1008,1021.7
2022-10-03T03:17:00+09:00,0.8,��쓌,2.1,��쓌,20.4,88.7,0,0,0,0,0,0,1008,1021.7
2022-10-03T03:18:00+09:00,0.7,��쓌,2.1,��쓌,20.3,88.3,0,0,0,0,0,0,1008,1021.7
2022-10-03T03:19:00+09:00,0.8,��쓌,2.1,��쓌,20.3,88,0,0,0,0,0,0,1008,1021.7
2022-10-03T03:20:00+09:00,0.7,��쓌,2.1,��쓌,20.4,88.1,0,0,0,0,0,0,1008,1021.7
2022-10-03T03:21:00+09:00,0.7,��쓌,2.1,��쓌,20.4,88.2,0,0,0,0,0,0,1007.9,1021.6
2022-10-03T03:22:00+09:00,0.6,��쓌,2,��쓌,20.3,88.1,0,0,0,0,0,0,1007.9,1021.6
2022-10-03T03:23:00+09:00,0.6,��쓌,2,��쓌,20.3,88,0,0,0,0,0,0,1007.9,1021.6
2022-10-03T03:24:00+09:00,0.6,��쓌,2,��쓌,20.2,88,0,0,0,0,0,0,1007.9,1021.6
2022-10-03T03:25:00+09:00,0.6,��쓌,2,��쓌,20.2,88.1,0,0,0,0,0,0,1007.9,1021.6
2022-10-03T03:26:00+09:00,0.6,��쓌,1.8,��,20.2,88.2,0,0,0,0,0,0,1007.9,1021.6
2022-10-03T03:27:00+09:00,0.6,��쓌,1.9,��쐼,20.4,88.8,0,0,0,0,0,0,1007.9,1021.6
2022-10-03T03:28:00+09:00,0.6,��쓌,1.9,��쐼,20.4,88.8,0,0,0,0,0,0,1008,1021.7
2022-10-03T03:29:00+09:00,0.6,��쓌,2.1,��쓌,20.5,88.6,0,0,0,0,0,0,1007.9,1021.6
2022-10-03T03:30:00+09:00,0.7,��쓌,2.1,��쓌,20.5,88.3,0,0,0,0,0,0,1008,1021.7
2022-10-03T03:31:00+09:00,0.7,��쓌,2.1,��쓌,20.4,87.9,0,0,0,0,0,0,1008,1021.7
2022-10-03T03:32:00+09:00,0.7,��쓌,2.1,��쓌,20.5,88.1,0,0,0,0,0,0,1008,1021.7
2022-10-03T03:33:00+09:00,0.7,��쓌,2.1,��쓌,20.4,87.6,0,0,0,0,0,0,1008,1021.7
2022-10-03T03:34:00+09:00,0.6,��쓌,2.1,��쓌,20.4,87.5,0,0,0,0,0,0,1008,1021.7
2022-10-03T03:35:00+09:00,0.6,��쓌,2.1,��쓌,20.5,87.9,0,0,0,0,0,0,1008,1021.7
2022-10-03T03:36:00+09:00,0.6,��쓌,2.1,��쓌,20.5,87.8,0,0,0,0,0,0,1008.1,1021.8
2022-10-03T03:37:00+09:00,0.5,��쓌,2.1,��쓌,20.5,87.6,0,0,0,0,0,0,1008.1,1021.8
2022-10-03T03:38:00+09:00,0.5,��쓌,2.1,��쓌,20.5,87.5,0,0,0,0,0,0,1008.1,1021.8
2022-10-03T03:39:00+09:00,0.4,��쓌,2.1,��쓌,20.5,87.4,0,0,0,0,0,0,1008.1,1021.8
2022-10-03T03:40:00+09:00,0.4,��쓌,2.1,��쓌,20.5,87.2,0,0,0,0,0,0,1008.1,1021.8
2022-10-03T03:41:00+09:00,0.4,�쓌,1.4,��,20.5,87.3,0,0,0,0,0,0,1008.1,1021.8
2022-10-03T03:42:00+09:00,0.4,�쓌,1.4,��,20.5,87.3,0,0,0,0,0,0,1008.1,1021.8
2022-10-03T03:43:00+09:00,0.4,�쓌,1.4,��,20.6,87.3,0,0,0,0,0,0,1008.1,1021.8
2022-10-03T03:44:00+09:00,0.4,�쓌,1.4,��,20.7,87.5,0,0,0,0,0,0,1008.1,1021.8
2022-10-03T03:45:00+09:00,0.4,��쓌,1.4,��,20.6,87,0,0,0,0,0,0,1008.1,1021.8
2022-10-03T03:46:00+09:00,0.4,��쓌,1.4,��,20.6,86.7,0,0,0,0,0,0,1008.1,1021.8
2022-10-03T03:47:00+09:00,0.4,��쓌,1.4,��,20.5,86.6,0,0,0,0,0,0,1008.1,1021.8
2022-10-03T03:48:00+09:00,0.3,��쓌,0.9,��,20.6,86.9,0,0,0,0,0,0,1008.1,1021.8
2022-10-03T03:49:00+09:00,0.4,��쓌,1.2,���k��,20.6,86.9,0,0,0,0,0,0,1008.1,1021.8
2022-10-03T03:50:00+09:00,0.4,��쓌,1.2,���k��,20.5,86.7,0,0,0,0,0,0,1008,1021.7
2022-10-03T03:51:00+09:00,0.4,��쓌,1.2,���k��,20.6,86.9,0,0,0,0,0,0,1008,1021.7
2022-10-03T03:52:00+09:00,0.4,��쓌,1.2,���k��,20.6,87.1,0,0,0,0,0,0,1008,1021.7
2022-10-03T03:53:00+09:00,0.4,��쓌,1.2,���k��,20.6,86.9,0,0,0,0,0,0,1008.1,1021.8
2022-10-03T03:54:00+09:00,0.4,��쓌,1.2,���k��,20.6,86.9,0,0,0,0,0,0,1008.1,1021.8
2022-10-03T03:55:00+09:00,0.4,��쓌,1.2,���k��,20.7,87.1,0,0,0,0,0,0,1008.1,1021.8
2022-10-03T03:56:00+09:00,0.4,�쓌,1.2,���k��,20.7,87.1,0,0,0,0,0,0,1008.1,1021.8
2022-10-03T03:57:00+09:00,0.4,�쓌,1.2,���k��,20.7,86.8,0,0,0,0,0,0,1008.1,1021.8
2022-10-03T03:58:00+09:00,0.5,�쓌,1.2,���k��,20.9,86.9,0,0,0,0,0,0,1008.1,1021.8
2022-10-03T03:59:00+09:00,0.5,��쓌,1.1,��,20.9,86.8,0,0,0,0,0,0,1008.1,1021.8
2022-10-03T04:00:00+09:00,0.4,��쓌,1.1,��,20.8,86,0,0,0,0,0,0,1008.1,1021.8
2022-10-03T04:01:00+09:00,0.5,�쓌,1.1,��,20.7,85.7,0,0,0,0,0,0,1008.1,1021.8
2022-10-03T04:02:00+09:00,0.5,�쓌,1.1,��,20.7,85.7,0,0,0,0,0,0,1008.1,1021.8
2022-10-03T04:03:00+09:00,0.5,�쓌,1.1,��,20.6,85.9,0,0,0,0,0,0,1008.1,1021.8
2022-10-03T04:04:00+09:00,0.5,�쓌,1.1,��,20.6,86.1,0,0,0,0,0,0,1008.1,1021.8
2022-10-03T04:05:00+09:00,0.5,�쓌,1.1,��,20.6,86.4,0,0,0,0,0,0,1008.1,1021.8
2022-10-03T04:06:00+09:00,0.4,�쓌,1.1,��,20.5,86.3,0,0,0,0,0,0,1008.1,1021.8
2022-10-03T04:07:00+09:00,0.4,�쓌,1.1,��,20.5,86.4,0,0,0,0,0,0,1008.1,1021.8
2022-10-03T04:08:00+09:00,0.4,�쓌,1.1,��,20.5,86.7,0,0,0,0,0,0,1008.1,1021.8
2022-10-03T04:09:00+09:00,0.4,�쓌,1.4,��,20.6,87.1,0,0,0,0,0,0,1008.1,1021.8
2022-10-03T04:10:00+09:00,0.4,�쓌,1.4,��,20.6,87.1,0,0,0,0,0,0,1008.1,1021.8
2022-10-03T04:11:00+09:00,0.4,�쓌,1.4,��,20.6,87.1,0,0,0,0,0,0,1008.1,1021.8
2022-10-03T04:12:00+09:00,0.4,�쓌,1.4,��,20.6,87.1,0,0,0,0,0,0,1008.1,1021.8
2022-10-03T04:13:00+09:00,0.4,�쓌,1.4,��,20.6,86.7,0,0,0,0,0,0,1008.1,1021.8
2022-10-03T04:14:00+09:00,0.4,�쓌,1.4,��,20.5,86.4,0,0,0,0,0,0,1008.1,1021.8
2022-10-03T04:15:00+09:00,0.4,�쓌,1.4,��,20.5,86.6,0,0,0,0,0,0,1008.1,1021.8
2022-10-03T04:16:00+09:00,0.4,�쓌,1.4,��,20.5,86.9,0,0,0,0,0,0,1008.1,1021.8
2022-10-03T04:17:00+09:00,0.4,�쓌,1.4,��,20.5,87,0,0,0,0,0,0,1008.1,1021.8
2022-10-03T04:18:00+09:00,0.4,�쓌,1.4,��,20.4,87.1,0,0,0,0,0,0,1008.1,1021.8
2022-10-03T04:19:00+09:00,0.4,���쓌,1.2,���k��,20.4,87.4,0,0,0,0,0,0,1008.1,1021.8
2022-10-03T04:20:00+09:00,0.3,���쓌,1.2,���k��,20.4,87.5,0,0,0,0,0,0,1008.1,1021.8
2022-10-03T04:21:00+09:00,0.3,���쓌,1.2,���k��,20.4,87.5,0,0,0,0,0,0,1008.1,1021.8
2022-10-03T04:22:00+09:00,0.3,���쓌,1.2,���k��,20.4,87.8,0,0,0,0,0,0,1008.1,1021.8
2022-10-03T04:23:00+09:00,0.3,�쓌,1.2,���k��,20.4,87.9,0,0,0,0,0,0,1008.1,1021.8
2022-10-03T04:24:00+09:00,0.2,�É�,1.2,���k��,20.4,87.9,0,0,0,0,0,0,1008.1,1021.8
2022-10-03T04:25:00+09:00,0.2,�É�,0.7,��,20.4,88,0,0,0,0,0,0,1008.1,1021.8
2022-10-03T04:26:00+09:00,0.3,���쓌,1.1,��,20.4,87.9,0,0,0,0,0,0,1008.1,1021.8
2022-10-03T04:27:00+09:00,0.3,���쓌,1.1,��,20.4,87.7,0,0,0,0,0,0,1008.2,1021.9
2022-10-03T04:28:00+09:00,0.3,���쓌,1.1,��,20.4,87.9,0,0,0,0,0,0,1008.2,1021.9
2022-10-03T04:29:00+09:00,0.3,�쓌,1.1,��,20.5,88.2,0,0,0,0,0,0,1008.2,1021.9
2022-10-03T04:30:00+09:00,0.4,�쓌,1.1,��,20.5,88,0,0,0,0,0,0,1008.2,1021.9
2022-10-03T04:31:00+09:00,0.4,�쓌,1.1,��,20.5,87.9,0,0,0,0,0,0,1008.2,1021.9
2022-10-03T04:32:00+09:00,0.4,�쓌,1.1,��,20.6,88.1,0,0,0,0,0,0,1008.2,1021.9
2022-10-03T04:33:00+09:00,0.4,�쓌,1.1,��,20.5,87.5,0,0,0,0,0,0,1008.2,1021.9
2022-10-03T04:34:00+09:00,0.5,���쓌,1.1,��,20.5,87.5,0,0,0,0,0,0,1008.2,1021.9
2022-10-03T04:35:00+09:00,0.4,���쓌,1.1,��,20.4,87.3,0,0,0,0,0,0,1008.2,1021.9
2022-10-03T04:36:00+09:00,0.4,���쓌,1.1,��,20.4,87.7,0,0,0,0,0,0,1008.2,1021.9
2022-10-03T04:37:00+09:00,0.4,���쓌,1.1,��,20.4,87.8,0,0,0,0,0,0,1008.2,1021.9
2022-10-03T04:38:00+09:00,0.4,���쓌,1.1,��,20.3,87.6,0,0,0,0,0,0,1008.2,1021.9
2022-10-03T04:39:00+09:00,0.4,���쓌,1,��,20.2,87.4,0,0,0,0,0,0,1008.1,1021.8
2022-10-03T04:40:00+09:00,0.4,���쓌,1.5,��쐼,20.4,88.4,0,0,0,0,0,0,1008.1,1021.8
2022-10-03T04:41:00+09:00,0.4,���쓌,1.5,��쐼,20.4,88.4,0,0,0,0,0,0,1008.1,1021.8
2022-10-03T04:42:00+09:00,0.5,���쓌,1.5,��쐼,20.5,88.5,0,0,0,0,0,0,1008.1,1021.8
2022-10-03T04:43:00+09:00,0.5,���쓌,1.5,��쐼,20.5,88.2,0,0,0,0,0,0,1008.1,1021.8
2022-10-03T04:44:00+09:00,0.5,���쓌,1.5,��쐼,20.3,87.5,0,0,0,0,0,0,1008.1,1021.8
2022-10-03T04:45:00+09:00,0.5,���쓌,1.5,��쐼,20.2,87.3,0,0,0,0,0,0,1008.1,1021.8
2022-10-03T04:46:00+09:00,0.5,���쓌,1.5,��쐼,20.1,87.9,0,0,0,0,0,0,1008.2,1021.9
2022-10-03T04:47:00+09:00,0.5,���쓌,1.5,��쐼,20.1,88.3,0,0,0,0,0,0,1008.2,1021.9
2022-10-03T04:48:00+09:00,0.5,�쓌,1.5,��쐼,20.2,89,0,0,0,0,0,0,1008.2,1021.9
2022-10-03T04:49:00+09:00,0.5,�쓌,1.5,��쐼,20.2,89.1,0,0,0,0,0,0,1008.2,1021.9
2022-10-03T04:50:00+09:00,0.4,�쓌,1.5,���k��,20.2,89.1,0,0,0,0,0,0,1008.2,1021.9
2022-10-03T04:51:00+09:00,0.3,�쓌,1.5,���k��,20.2,88.9,0,0,0,0,0,0,1008.2,1021.9
2022-10-03T04:52:00+09:00,0.3,�쓌,1.5,���k��,20.2,88.7,0,0,0,0,0,0,1008.2,1021.9
2022-10-03T04:53:00+09:00,0.3,�쓌,1.2,���k��,20.1,88.8,0,0,0,0,0,0,1008.2,1021.9
2022-10-03T04:54:00+09:00,0.3,�쓌,1,���k��,20.1,88.9,0,0,0,0,0,0,1008.2,1021.9
2022-10-03T04:55:00+09:00,0.2,�É�,0.7,��쐼,20.1,89.1,0,0,0,0,0,0,1008.2,1021.9
2022-10-03T04:56:00+09:00,0.2,�É�,0.7,��쐼,20.2,89.4,0,0,0,0,0,0,1008.2,1021.9
2022-10-03T04:57:00+09:00,0.2,�É�,0.7,��쐼,20.2,89.5,0,0,0,0,0,0,1008.3,1022
2022-10-03T04:58:00+09:00,0.2,�É�,0.7,��쐼,20.2,89.3,0,0,0,0,0,0,1008.2,1021.9
2022-10-03T04:59:00+09:00,0.2,�É�,0.7,��쐼,20.2,89.2,0,0,0,0,0,0,1008.2,1021.9
2022-10-03T05:00:00+09:00,0.2,�É�,0.7,���쓌,20.2,89.2,0,0,0,0,0,0,1008.2,1021.9
2022-10-03T05:01:00+09:00,0.3,�쓌,0.7,���쓌,20.2,89.2,0,0,0,0,0,0,1008.2,1021.9
2022-10-03T05:02:00+09:00,0.3,��쓌,0.7,���쓌,20.2,89.1,0,0,0,0,0,0,1008.2,1021.9
2022-10-03T05:03:00+09:00,0.3,��쓌,0.7,���쓌,20.2,89.2,0,0,0,0,0,0,1008.2,1021.9
2022-10-03T05:04:00+09:00,0.3,��쓌,0.7,���쓌,20.2,89,0,0,0,0,0,0,1008.2,1021.9
2022-10-03T05:05:00+09:00,0.3,��쓌,0.8,��쓌,20.2,89.1,0,0,0,0,0,0,1008.2,1021.9
2022-10-03T05:06:00+09:00,0.3,��쓌,0.8,��쓌,20.2,89.2,0,0,0,0,0,0,1008.2,1021.9
2022-10-03T05:07:00+09:00,0.3,��쓌,0.8,��쓌,20.3,89.5,0,0,0,0,0,0,1008.2,1021.9
2022-10-03T05:08:00+09:00,0.4,��쓌,0.8,��쓌,20.3,89.3,0,0,0,0,0,0,1008.2,1021.9
2022-10-03T05:09:00+09:00,0.4,��쓌,0.8,��쓌,20.3,89,0,0,0,0,0,0,1008.2,1021.9
2022-10-03T05:10:00+09:00,0.3,��,0.8,��쓌,20.2,88.7,0,0,0,0,0,0,1008.2,1021.9